HN789 EYKA-LGAV

Flight info

Callsign HN789
Flight time N/A
Altitude 36000
Route KAZLA1A KAZLA DCT BOKSU DCT TOXAR DCT ROBTU/N0456F370 DCT BADOR DCT NIKTI/N0454F380 DCT PEREN DCT BAMOS/N0453F370 UL617 SKP UM749 ROPOX ROPOX1W
Aircraft A320/M-V/N

Departure

Time 2026-05-08 07:49
Airport Kaunas International Airport (EYKA)

Arrival

Time N/A
Airport Athens Eleftherios Venizelos International Airport (LGAV)
Time Latitude Longitude Altitude Speed Heading
2026-05-08 07:34 54.96550 24.07581 268 ft 0 kts 106°
2026-05-08 07:46 54.96547 24.07598 268 ft 7 kts 106°
2026-05-08 07:46 54.96532 24.07627 268 ft 2 kts 169°
2026-05-08 07:46 54.96506 24.07579 268 ft 10 kts 251°
2026-05-08 07:47 54.96496 24.07403 268 ft 17 kts 252°
2026-05-08 07:47 54.96403 24.07342 267 ft 12 kts 175°
2026-05-08 07:47 54.96331 24.07382 267 ft 9 kts 110°
2026-05-08 07:47 54.96334 24.07476 266 ft 0 kts 85°
2026-05-08 07:48 54.96335 24.07478 266 ft 1 kts 85°
2026-05-08 07:48 54.96347 24.07698 265 ft 50 kts 83°
2026-05-08 07:48 54.96397 24.08687 269 ft 112 kts 85°
2026-05-08 07:48 54.96480 24.10332 386 ft 148 kts 82°
2026-05-08 07:49 54.96558 24.12057 1180 ft 141 kts 80°
2026-05-08 07:49 54.96645 24.13763 1925 ft 143 kts 81°
2026-05-08 07:49 54.96743 24.15637 2277 ft 167 kts 82°
2026-05-08 07:49 54.96851 24.17793 2583 ft 194 kts 84°
2026-05-08 07:50 54.96962 24.20298 3017 ft 218 kts 84°
2026-05-08 07:50 54.97065 24.22945 3930 ft 222 kts 87°
2026-05-08 07:50 54.96744 24.25638 4772 ft 233 kts 118°
2026-05-08 07:50 54.95516 24.27644 5321 ft 262 kts 150°
2026-05-08 07:51 54.93697 24.28440 6077 ft 276 kts 171°
2026-05-08 07:51 54.91759 24.28519 6982 ft 280 kts 178°
2026-05-08 07:51 54.89805 24.28407 7889 ft 282 kts 180°
2026-05-08 07:51 54.87835 24.28322 8753 ft 284 kts 179°
2026-05-08 07:52 54.85850 24.28332 9649 ft 286 kts 181°
2026-05-08 07:52 54.83899 24.27664 10444 ft 290 kts 203°
2026-05-08 07:52 54.82196 24.25653 10830 ft 310 kts 227°
2026-05-08 07:52 54.80975 24.22409 11047 ft 334 kts 240°
2026-05-08 07:53 54.79800 24.18779 11223 ft 357 kts 240°
2026-05-08 07:53 54.78561 24.14963 11683 ft 368 kts 239°
2026-05-08 07:53 54.77290 24.11092 12353 ft 372 kts 239°
2026-05-08 07:53 54.75992 24.07186 13048 ft 376 kts 238°
2026-05-08 07:54 54.74670 24.03254 13744 ft 379 kts 238°
2026-05-08 07:54 54.73341 23.99312 14357 ft 382 kts 238°
2026-05-08 07:54 54.71989 23.95311 14993 ft 385 kts 237°
2026-05-08 07:54 54.70633 23.91304 15619 ft 388 kts 238°
2026-05-08 07:55 54.69266 23.87271 16239 ft 390 kts 238°
2026-05-08 07:55 54.67885 23.83209 16852 ft 393 kts 237°
2026-05-08 07:55 54.66497 23.79123 17454 ft 396 kts 237°
2026-05-08 07:55 54.65097 23.75002 18071 ft 399 kts 237°
2026-05-08 07:56 54.63667 23.70798 18626 ft 402 kts 237°
2026-05-08 07:56 54.62244 23.66624 19163 ft 404 kts 237°
2026-05-08 07:56 54.60815 23.62435 19697 ft 406 kts 237°
2026-05-08 07:56 54.59380 23.58243 20228 ft 407 kts 237°
2026-05-08 07:57 54.57940 23.54039 20750 ft 408 kts 237°
2026-05-08 07:57 54.56497 23.49827 21267 ft 409 kts 237°
2026-05-08 07:57 54.55046 23.45607 21757 ft 410 kts 236°
2026-05-08 07:57 54.53586 23.41372 22233 ft 411 kts 236°
2026-05-08 07:58 54.52123 23.37136 22696 ft 413 kts 236°
2026-05-08 07:58 54.50558 23.33004 23123 ft 412 kts 229°
2026-05-08 07:58 54.48647 23.29367 23562 ft 410 kts 220°
2026-05-08 07:58 54.46434 23.26280 23948 ft 409 kts 215°
2026-05-08 07:59 54.44161 23.23335 24316 ft 410 kts 215°
2026-05-08 07:59 54.41881 23.20378 24678 ft 411 kts 215°
2026-05-08 07:59 54.39596 23.17408 25013 ft 412 kts 215°
2026-05-08 07:59 54.37311 23.14434 25340 ft 413 kts 215°
2026-05-08 08:00 54.35018 23.11453 25660 ft 414 kts 214°
2026-05-08 08:00 54.32675 23.08580 25966 ft 414 kts 209°
2026-05-08 08:00 54.30116 23.06345 26256 ft 413 kts 201°
2026-05-08 08:00 54.28324 23.05274 26446 ft 413 kts 195°
2026-05-08 08:01 54.25514 23.04228 26720 ft 414 kts 190°
2026-05-08 08:01 54.22639 23.03320 26988 ft 415 kts 190°
2026-05-08 08:01 54.19800 23.02423 27252 ft 416 kts 190°
2026-05-08 08:01 54.16951 23.01522 27498 ft 417 kts 190°
2026-05-08 08:02 54.14105 23.00618 27817 ft 416 kts 190°
2026-05-08 08:02 54.11268 22.99715 28187 ft 414 kts 190°
2026-05-08 08:02 54.08442 22.98818 28547 ft 412 kts 190°
2026-05-08 08:02 54.05630 22.97927 28905 ft 411 kts 190°
2026-05-08 08:03 54.02821 22.97039 29250 ft 410 kts 190°
2026-05-08 08:03 54.00025 22.96159 29612 ft 408 kts 190°
2026-05-08 08:03 53.97237 22.95283 29964 ft 407 kts 190°
2026-05-08 08:03 53.94456 22.94411 30307 ft 406 kts 190°
2026-05-08 08:04 53.91686 22.93546 30603 ft 404 kts 190°
2026-05-08 08:04 53.88918 22.92680 30891 ft 404 kts 191°
2026-05-08 08:04 53.86160 22.91814 31181 ft 403 kts 191°
2026-05-08 08:04 53.83407 22.90954 31478 ft 402 kts 191°
2026-05-08 08:05 53.80660 22.90094 31765 ft 401 kts 191°
2026-05-08 08:05 53.77916 22.89234 32052 ft 400 kts 191°
2026-05-08 08:05 53.75180 22.88379 32342 ft 400 kts 191°
2026-05-08 08:05 53.72448 22.87530 32626 ft 399 kts 191°
2026-05-08 08:06 53.69723 22.86688 32928 ft 398 kts 191°
2026-05-08 08:06 53.67003 22.85847 33223 ft 397 kts 191°
2026-05-08 08:06 53.64285 22.85005 33516 ft 396 kts 191°
2026-05-08 08:06 53.61579 22.84168 33807 ft 396 kts 191°
2026-05-08 08:07 53.58874 22.83333 34102 ft 395 kts 192°
2026-05-08 08:07 53.56169 22.82500 34325 ft 395 kts 191°
2026-05-08 08:07 53.53467 22.81666 34525 ft 396 kts 192°
2026-05-08 08:07 53.50755 22.80825 34717 ft 397 kts 192°
2026-05-08 08:08 53.48037 22.79982 34894 ft 398 kts 191°
2026-05-08 08:08 53.45308 22.79141 35068 ft 399 kts 191°
2026-05-08 08:08 53.42574 22.78307 35249 ft 400 kts 191°
2026-05-08 08:08 53.39795 22.77461 35419 ft 401 kts 191°
2026-05-08 08:09 53.37078 22.76631 35583 ft 402 kts 191°
2026-05-08 08:09 53.34287 22.75778 35751 ft 403 kts 191°
2026-05-08 08:09 53.31523 22.74937 35919 ft 404 kts 191°
2026-05-08 08:09 53.28750 22.74097 36051 ft 406 kts 191°
2026-05-08 08:10 53.25962 22.73248 36081 ft 409 kts 191°
2026-05-08 08:10 53.20349 22.71546 36080 ft 411 kts 191°
2026-05-08 08:11 53.14725 22.69830 36075 ft 411 kts 191°
2026-05-08 08:11 53.09095 22.68120 36078 ft 411 kts 191°
2026-05-08 08:12 53.03461 22.66426 36074 ft 412 kts 191°
2026-05-08 08:12 52.97820 22.64734 36073 ft 412 kts 191°
2026-05-08 08:13 52.92175 22.63043 36072 ft 412 kts 191°
2026-05-08 08:13 52.86521 22.61362 36076 ft 413 kts 191°
2026-05-08 08:14 52.80867 22.59680 36072 ft 413 kts 191°
2026-05-08 08:14 52.75209 22.58000 36074 ft 413 kts 191°
2026-05-08 08:15 52.69553 22.56326 36072 ft 413 kts 191°
2026-05-08 08:15 52.63896 22.54645 36069 ft 413 kts 191°
2026-05-08 08:16 52.58225 22.53076 36069 ft 413 kts 189°
2026-05-08 08:16 52.52476 22.51893 36061 ft 414 kts 187°
2026-05-08 08:17 52.46747 22.50814 36065 ft 414 kts 188°
2026-05-08 08:17 52.41027 22.49657 36069 ft 414 kts 188°
2026-05-08 08:18 52.35308 22.48446 36069 ft 415 kts 188°
2026-05-08 08:18 52.29588 22.47235 36066 ft 415 kts 188°
2026-05-08 08:19 52.23853 22.46044 36079 ft 415 kts 188°
2026-05-08 08:19 52.18116 22.44857 36083 ft 416 kts 188°
2026-05-08 08:20 52.12379 22.43665 36078 ft 416 kts 188°
2026-05-08 08:20 52.06642 22.42479 36081 ft 415 kts 188°
2026-05-08 08:21 52.00904 22.41310 36075 ft 416 kts 188°
2026-05-08 08:21 51.95167 22.40134 36077 ft 416 kts 188°
2026-05-08 08:22 51.89425 22.38959 36072 ft 416 kts 188°
2026-05-08 08:22 51.83676 22.37784 36070 ft 417 kts 188°
2026-05-08 08:23 51.77914 22.36611 36075 ft 417 kts 188°
2026-05-08 08:23 51.72158 22.35445 36068 ft 417 kts 188°
2026-05-08 08:24 51.66394 22.34286 36070 ft 417 kts 188°
2026-05-08 08:24 51.60624 22.33129 36076 ft 418 kts 188°
2026-05-08 08:25 51.54812 22.31952 36081 ft 418 kts 188°
2026-05-08 08:25 51.49033 22.30784 36078 ft 419 kts 188°
2026-05-08 08:26 51.43247 22.29621 36080 ft 419 kts 188°
2026-05-08 08:26 51.37460 22.28467 36074 ft 419 kts 188°
2026-05-08 08:27 51.31663 22.27312 36075 ft 420 kts 188°
2026-05-08 08:27 51.25863 22.26154 36076 ft 420 kts 188°
2026-05-08 08:28 51.20050 22.25003 36087 ft 422 kts 188°
2026-05-08 08:28 51.14233 22.23852 36083 ft 421 kts 188°
2026-05-08 08:29 51.08411 22.22704 36084 ft 422 kts 188°
2026-05-08 08:29 51.02582 22.21555 36087 ft 422 kts 188°
2026-05-08 08:30 50.96749 22.20410 36087 ft 423 kts 188°
2026-05-08 08:30 50.87984 22.18685 36089 ft 423 kts 188°
2026-05-08 08:31 50.82138 22.17552 36091 ft 423 kts 188°
2026-05-08 08:31 50.76246 22.16412 36093 ft 424 kts 188°
2026-05-08 08:32 50.70392 22.15272 36088 ft 424 kts 188°
2026-05-08 08:32 50.64531 22.14137 36085 ft 424 kts 188°
2026-05-08 08:33 50.58669 22.13004 36086 ft 425 kts 188°
2026-05-08 08:33 50.52800 22.11876 36084 ft 425 kts 188°
2026-05-08 08:34 50.47917 22.10938 36082 ft 426 kts 188°
2026-05-08 08:34 50.42033 22.09808 36080 ft 426 kts 188°
2026-05-08 08:35 50.36146 22.08683 36077 ft 427 kts 189°
2026-05-08 08:35 50.30208 22.07559 36084 ft 427 kts 189°
2026-05-08 08:36 50.24305 22.06440 36085 ft 427 kts 189°
2026-05-08 08:36 50.18398 22.05316 36083 ft 428 kts 189°
2026-05-08 08:37 50.12491 22.04192 36080 ft 428 kts 189°
2026-05-08 08:37 50.06582 22.03072 36080 ft 428 kts 189°
2026-05-08 08:38 50.00669 22.01947 36076 ft 428 kts 189°
2026-05-08 08:38 49.94745 22.00835 36079 ft 429 kts 189°
2026-05-08 08:39 49.88819 21.99732 36079 ft 429 kts 189°
2026-05-08 08:39 49.82892 21.98619 36082 ft 429 kts 189°
2026-05-08 08:40 49.76961 21.97505 36083 ft 430 kts 189°
2026-05-08 08:40 49.71020 21.96400 36079 ft 430 kts 189°
2026-05-08 08:41 49.65081 21.95302 36079 ft 430 kts 189°
2026-05-08 08:41 49.59131 21.94198 36084 ft 431 kts 189°
2026-05-08 08:42 49.53173 21.93087 36077 ft 431 kts 189°
2026-05-08 08:42 49.47180 21.91983 36076 ft 431 kts 189°
2026-05-08 08:43 49.41225 21.90900 36072 ft 431 kts 189°
2026-05-08 08:43 49.35262 21.89816 36068 ft 432 kts 190°
2026-05-08 08:44 49.29297 21.88733 36066 ft 432 kts 190°
2026-05-08 08:44 49.23322 21.87641 36062 ft 432 kts 190°
2026-05-08 08:45 49.17348 21.86542 36059 ft 432 kts 190°
2026-05-08 08:45 49.11373 21.85463 36058 ft 433 kts 190°
2026-05-08 08:46 49.05387 21.84385 36056 ft 433 kts 190°
2026-05-08 08:46 48.99394 21.83306 36058 ft 434 kts 190°
2026-05-08 08:47 48.93401 21.82218 36055 ft 434 kts 190°
2026-05-08 08:47 48.87350 21.81956 36043 ft 441 kts 176°
2026-05-08 08:48 48.81276 21.83353 36041 ft 441 kts 175°
2026-05-08 08:48 48.75208 21.84738 36035 ft 441 kts 176°
2026-05-08 08:49 48.69093 21.86115 36038 ft 442 kts 176°
2026-05-08 08:49 48.63010 21.87484 36043 ft 442 kts 176°
2026-05-08 08:50 48.56918 21.88852 36043 ft 443 kts 176°
2026-05-08 08:50 48.50820 21.90223 36050 ft 443 kts 176°
2026-05-08 08:51 48.44722 21.91582 36051 ft 443 kts 176°
2026-05-08 08:51 48.38620 21.92957 36053 ft 443 kts 176°
2026-05-08 08:52 48.32517 21.94327 36055 ft 443 kts 176°
2026-05-08 08:52 48.26414 21.95679 36056 ft 443 kts 176°
2026-05-08 08:53 48.20305 21.97026 36063 ft 443 kts 176°
2026-05-08 08:53 48.14203 21.98377 36062 ft 443 kts 176°
2026-05-08 08:54 48.08104 21.99720 36063 ft 443 kts 176°
2026-05-08 08:54 48.02004 22.01061 36067 ft 443 kts 176°
2026-05-08 08:55 47.95864 22.02415 36063 ft 443 kts 176°
2026-05-08 08:55 47.89753 22.03751 36067 ft 444 kts 176°
2026-05-08 08:56 47.83645 22.05084 36068 ft 444 kts 176°
2026-05-08 08:56 47.77534 22.06416 36071 ft 444 kts 176°
2026-05-08 08:57 47.71423 22.07750 36068 ft 444 kts 177°
2026-05-08 08:57 47.65316 22.09077 36068 ft 444 kts 177°
2026-05-08 08:58 47.59209 22.10402 36067 ft 444 kts 177°
2026-05-08 08:58 47.53139 22.12369 36067 ft 448 kts 171°
2026-05-08 08:59 47.47097 22.14623 36068 ft 448 kts 171°
2026-05-08 08:59 47.41047 22.16860 36075 ft 448 kts 172°
2026-05-08 09:00 47.34999 22.19096 36076 ft 448 kts 172°
2026-05-08 09:00 47.28949 22.21317 36077 ft 448 kts 172°
2026-05-08 09:01 47.22863 22.23550 36075 ft 447 kts 172°
2026-05-08 09:01 47.16830 22.25768 36077 ft 447 kts 172°
2026-05-08 09:02 47.10797 22.27985 36083 ft 447 kts 172°
2026-05-08 09:02 47.04770 22.30177 36080 ft 447 kts 172°
2026-05-08 09:03 46.98739 22.32368 36077 ft 447 kts 172°
2026-05-08 09:03 46.92711 22.34565 36080 ft 446 kts 172°
2026-05-08 09:04 46.86678 22.36767 36084 ft 446 kts 172°
2026-05-08 09:04 46.80650 22.38954 36079 ft 447 kts 172°
2026-05-08 09:05 46.74618 22.41133 36077 ft 447 kts 172°
2026-05-08 09:05 46.68578 22.43301 36074 ft 447 kts 172°
2026-05-08 09:06 46.62538 22.45465 36071 ft 447 kts 172°
2026-05-08 09:06 46.56493 22.47643 36066 ft 448 kts 172°
2026-05-08 09:07 46.50441 22.49815 36068 ft 448 kts 172°
2026-05-08 09:07 46.44392 22.51974 36072 ft 448 kts 172°
2026-05-08 09:08 46.39325 22.53772 36075 ft 447 kts 172°
2026-05-08 09:08 46.33279 22.55912 36079 ft 447 kts 172°
2026-05-08 09:09 46.27240 22.58054 36079 ft 447 kts 172°
2026-05-08 09:09 46.21208 22.60193 36096 ft 446 kts 172°
2026-05-08 09:10 46.15184 22.62325 36087 ft 446 kts 172°
2026-05-08 09:10 46.09159 22.64442 36080 ft 445 kts 172°
2026-05-08 09:11 46.03141 22.66551 36078 ft 445 kts 172°
2026-05-08 09:11 45.97134 22.68657 36066 ft 445 kts 172°
2026-05-08 09:12 45.91118 22.70773 36070 ft 445 kts 172°
2026-05-08 09:12 45.85102 22.72879 36066 ft 445 kts 172°
2026-05-08 09:13 45.79081 22.74965 36062 ft 445 kts 172°
2026-05-08 09:13 45.73058 22.77054 36063 ft 445 kts 172°
2026-05-08 09:14 45.66998 22.79171 36059 ft 445 kts 172°
2026-05-08 09:14 45.60976 22.81258 36062 ft 445 kts 172°
2026-05-08 09:15 45.54955 22.83330 36061 ft 445 kts 172°
2026-05-08 09:15 45.48929 22.85396 36060 ft 445 kts 172°
2026-05-08 09:16 45.42898 22.87465 36058 ft 446 kts 172°
2026-05-08 09:16 45.36869 22.89532 36054 ft 446 kts 172°
2026-05-08 09:17 45.30835 22.91612 36052 ft 446 kts 172°
2026-05-08 09:17 45.24800 22.93670 36048 ft 447 kts 172°
2026-05-08 09:18 45.18755 22.95723 36041 ft 447 kts 172°
2026-05-08 09:18 45.12710 22.97782 36042 ft 447 kts 172°
2026-05-08 09:19 45.06661 22.99833 36034 ft 447 kts 172°
2026-05-08 09:19 45.00615 23.01883 36038 ft 447 kts 172°
2026-05-08 09:20 44.94527 23.03935 36044 ft 447 kts 172°
2026-05-08 09:20 44.88478 23.05968 36053 ft 447 kts 172°
2026-05-08 09:21 44.82435 23.08005 36047 ft 447 kts 172°
2026-05-08 09:23 44.61281 23.15095 36048 ft 447 kts 172°
2026-05-08 09:23 44.55232 23.17107 36049 ft 447 kts 172°
2026-05-08 09:24 44.49185 23.19118 36047 ft 447 kts 172°
2026-05-08 09:24 44.43139 23.21123 36048 ft 447 kts 172°
2026-05-08 09:25 44.37087 23.23116 36047 ft 447 kts 172°
2026-05-08 09:25 44.31034 23.25118 36047 ft 447 kts 172°
2026-05-08 09:26 44.24979 23.27119 36051 ft 447 kts 172°
2026-05-08 09:26 44.18918 23.29112 36050 ft 447 kts 172°
2026-05-08 09:27 44.12825 23.31114 36051 ft 447 kts 172°
2026-05-08 09:27 44.06765 23.33093 36049 ft 447 kts 172°
2026-05-08 09:28 44.00708 23.35070 36049 ft 447 kts 172°
2026-05-08 09:28 43.94653 23.37047 36048 ft 447 kts 172°
2026-05-08 09:29 43.88593 23.39015 36051 ft 447 kts 172°
2026-05-08 09:29 43.82534 23.40978 36053 ft 447 kts 172°
2026-05-08 09:30 43.76473 23.42942 36053 ft 447 kts 172°
2026-05-08 09:30 43.70415 23.44902 36049 ft 447 kts 172°
2026-05-08 09:31 43.64355 23.46862 36048 ft 447 kts 172°
2026-05-08 09:31 43.58293 23.48822 36059 ft 447 kts 172°
2026-05-08 09:32 43.52231 23.50766 36056 ft 447 kts 172°
2026-05-08 09:32 43.46135 23.52718 36055 ft 447 kts 172°
2026-05-08 09:33 43.40084 23.54655 36058 ft 446 kts 172°
2026-05-08 09:33 43.34038 23.56583 36062 ft 446 kts 172°
2026-05-08 09:34 43.27993 23.58511 36064 ft 446 kts 172°
2026-05-08 09:34 43.21948 23.60435 36064 ft 446 kts 172°
2026-05-08 09:35 43.15906 23.62364 36061 ft 446 kts 172°
2026-05-08 09:35 43.09863 23.64279 36062 ft 446 kts 172°
2026-05-08 09:36 43.03817 23.66188 36068 ft 446 kts 172°
2026-05-08 09:36 42.97776 23.68100 36071 ft 446 kts 172°
2026-05-08 09:37 42.91727 23.69994 36072 ft 446 kts 172°
2026-05-08 09:37 42.86135 23.71749 36076 ft 446 kts 172°
2026-05-08 09:38 42.82188 23.72614 36082 ft 441 kts 178°
2026-05-08 09:38 42.76127 23.74332 36101 ft 448 kts 170°
2026-05-08 09:39 42.70125 23.76631 36097 ft 448 kts 169°
2026-05-08 09:39 42.65079 23.78416 36096 ft 446 kts 171°
2026-05-08 09:40 42.59034 23.80305 36094 ft 445 kts 172°
2026-05-08 09:40 42.52988 23.82119 36091 ft 445 kts 172°
2026-05-08 09:41 42.46948 23.83961 36096 ft 445 kts 172°
2026-05-08 09:41 42.40909 23.85845 36088 ft 445 kts 172°
2026-05-08 09:42 42.34873 23.87724 36093 ft 445 kts 172°
2026-05-08 09:42 42.28840 23.89580 36090 ft 445 kts 172°
2026-05-08 09:43 42.22809 23.91431 36091 ft 444 kts 172°
2026-05-08 09:43 42.16790 23.93270 36092 ft 443 kts 172°
2026-05-08 09:44 42.10769 23.95119 36091 ft 444 kts 172°
2026-05-08 09:44 42.04703 23.96982 36095 ft 444 kts 172°
2026-05-08 09:45 41.98674 23.98826 36102 ft 444 kts 172°
2026-05-08 09:45 41.92641 24.00661 36102 ft 444 kts 172°
2026-05-08 09:46 41.86607 24.02487 36107 ft 445 kts 172°
2026-05-08 09:46 41.80575 24.04313 36108 ft 445 kts 172°
2026-05-08 09:47 41.74537 24.06150 36113 ft 445 kts 172°
2026-05-08 09:47 41.68498 24.07988 36115 ft 445 kts 172°
2026-05-08 09:48 41.62464 24.09817 36120 ft 445 kts 172°
2026-05-08 09:48 41.56420 24.11556 36121 ft 442 kts 177°
2026-05-08 09:49 41.50374 24.11472 36116 ft 432 kts 191°
2026-05-08 09:49 41.44407 24.10477 36120 ft 432 kts 191°
2026-05-08 09:50 41.38438 24.09500 36113 ft 432 kts 191°
2026-05-08 09:50 41.32469 24.08536 36115 ft 432 kts 191°
2026-05-08 09:51 41.26493 24.07565 36113 ft 433 kts 191°
2026-05-08 09:51 41.20520 24.06590 36106 ft 432 kts 191°
2026-05-08 09:52 41.14506 24.05613 36114 ft 433 kts 191°
2026-05-08 09:52 41.08525 24.04638 36115 ft 433 kts 192°
2026-05-08 09:53 41.02541 24.03664 36109 ft 433 kts 192°
2026-05-08 09:53 40.96554 24.02689 36121 ft 434 kts 192°
2026-05-08 09:54 40.90560 24.01729 36123 ft 434 kts 192°
2026-05-08 09:54 40.84563 24.00766 36118 ft 434 kts 192°
2026-05-08 09:55 40.78564 23.99802 36114 ft 434 kts 192°
2026-05-08 09:55 40.72562 23.98837 36119 ft 435 kts 192°
2026-05-08 09:56 40.66554 23.97877 36117 ft 435 kts 192°
2026-05-08 09:56 40.60550 23.96916 36118 ft 434 kts 193°
2026-05-08 09:57 40.51795 23.94287 36122 ft 430 kts 199°
2026-05-08 09:57 40.45982 23.92431 36126 ft 430 kts 199°
2026-05-08 09:58 40.40172 23.90585 36131 ft 429 kts 199°
2026-05-08 09:58 40.34367 23.88744 36137 ft 429 kts 199°
2026-05-08 09:59 40.28570 23.86907 36139 ft 428 kts 199°
2026-05-08 09:59 40.22738 23.85075 36146 ft 427 kts 199°
2026-05-08 10:00 40.16961 23.83263 36149 ft 427 kts 199°
2026-05-08 10:00 40.11195 23.81450 36155 ft 426 kts 199°
2026-05-08 10:01 40.05433 23.79634 36144 ft 425 kts 199°
2026-05-08 10:01 39.99686 23.77825 36157 ft 425 kts 199°
2026-05-08 10:02 39.93945 23.76039 36159 ft 424 kts 199°
2026-05-08 10:02 39.88198 23.74256 36154 ft 424 kts 199°
2026-05-08 10:03 39.82451 23.72467 36154 ft 424 kts 199°
2026-05-08 10:03 39.76709 23.70689 36149 ft 424 kts 199°
2026-05-08 10:04 39.70970 23.68901 36147 ft 424 kts 199°
2026-05-08 10:04 39.65366 23.67156 36141 ft 424 kts 199°
2026-05-08 10:05 39.59627 23.65380 36136 ft 424 kts 199°
2026-05-08 10:05 39.53892 23.63610 35884 ft 422 kts 199°
2026-05-08 10:06 39.50993 23.62720 35058 ft 423 kts 199°
2026-05-08 10:06 39.48126 23.61838 34224 ft 424 kts 199°
2026-05-08 10:06 39.45255 23.60954 33268 ft 425 kts 199°
2026-05-08 10:06 39.42372 23.60063 32223 ft 428 kts 199°
2026-05-08 10:07 39.39460 23.59165 31146 ft 432 kts 199°
2026-05-08 10:07 39.36517 23.58258 30020 ft 438 kts 199°
2026-05-08 10:07 39.33522 23.57379 28848 ft 445 kts 195°
2026-05-08 10:07 39.30407 23.57068 28357 ft 456 kts 185°
2026-05-08 10:08 39.27213 23.57498 28127 ft 468 kts 174°
2026-05-08 10:08 39.24065 23.58712 28099 ft 477 kts 166°
2026-05-08 10:08 39.17803 23.61457 28112 ft 471 kts 173°
2026-05-08 10:09 39.11381 23.62602 28115 ft 465 kts 180°
2026-05-08 10:09 39.04962 23.63541 28122 ft 464 kts 180°
2026-05-08 10:10 38.98547 23.64481 28127 ft 463 kts 180°
2026-05-08 10:10 38.92102 23.65428 28133 ft 463 kts 180°
2026-05-08 10:11 38.85713 23.66360 28072 ft 461 kts 180°
2026-05-08 10:11 38.82550 23.66827 27084 ft 458 kts 180°
2026-05-08 10:11 38.79367 23.67296 25684 ft 463 kts 179°
2026-05-08 10:12 38.76147 23.67767 24262 ft 469 kts 179°
2026-05-08 10:12 38.72885 23.68242 23369 ft 471 kts 179°
2026-05-08 10:12 38.69628 23.68720 22927 ft 471 kts 179°
2026-05-08 10:12 38.66375 23.69199 22503 ft 469 kts 179°
2026-05-08 10:13 38.63137 23.69675 22084 ft 467 kts 179°
2026-05-08 10:13 38.61002 23.69989 21815 ft 465 kts 178°
2026-05-08 10:13 38.57798 23.70462 21408 ft 462 kts 178°
2026-05-08 10:13 38.54613 23.70933 21010 ft 460 kts 178°
2026-05-08 10:14 38.51445 23.71400 20610 ft 457 kts 178°
2026-05-08 10:14 38.48292 23.71861 20212 ft 455 kts 178°
2026-05-08 10:14 38.45170 23.72315 19668 ft 448 kts 178°
2026-05-08 10:14 38.42090 23.72762 18907 ft 443 kts 178°
2026-05-08 10:15 38.39043 23.73205 18124 ft 438 kts 178°
2026-05-08 10:15 38.36024 23.73642 17292 ft 434 kts 178°
2026-05-08 10:15 38.33045 23.74071 16523 ft 429 kts 178°
2026-05-08 10:15 38.30090 23.74495 15832 ft 425 kts 178°
2026-05-08 10:16 38.27134 23.74920 15145 ft 420 kts 178°
2026-05-08 10:16 38.24243 23.75336 14463 ft 416 kts 177°
2026-05-08 10:16 38.21373 23.75756 13782 ft 413 kts 176°
2026-05-08 10:16 38.18576 23.76527 13325 ft 407 kts 167°
2026-05-08 10:17 38.16155 23.77670 13085 ft 380 kts 160°
2026-05-08 10:17 38.13924 23.79167 12708 ft 359 kts 152°
2026-05-08 10:17 38.11911 23.80899 12330 ft 339 kts 149°